Location: Banff
(51.1667°N, 115.5667°W)
Time: 06:56:02
(UTC+00:00)

S-56A Canister/Altair - Pass Details

Date: 05 December 2020
Orbit: 633 x 2499 km, 38.9° (Epoch: 21 January)

Event Time Altitude Azimuth Distance (km) Brightness Sun altitude
Rises 00:17:49 0° 212° (SSW) 6,136 13.3 -6.3°
Reaches altitude 10° 00:22:49 10° 203° (SSW) 5,018 12.5 -7.0°
Maximum altitude 00:33:32 27° 153° (SSE) 3,343 10.8 -8.5°
Drops below altitude 10° 00:42:07 10° 101° (E) 3,968 10.7 -9.8°
Enters shadow 00:43:38 - 96° (E) 4,265 10.8 -10.0°
Sets 00:45:30 0° 90° (E) 4,682 - -10.2°
